Activity Log for May, 02 2019

Back to Activity Log Search


Incident Time Nature Address
19A018387 00:12:18 48 SUSPICIOUS BASS RD & N HADLEY RD
19A018388 00:13:56 123 LEO/CEDARVI 150XX SR 1
19A018389 00:15:36 14S SERVING WAR 46XX S HANNA ST
19A018390 00:49:59 30 TRAFFIC STOP S ANTHONY BLVD & E WAYNE TRACE
19A018391 00:55:24 32 DEATH INVEST 2XX W FERGUSON RD
19A018392 01:06:38 30 TRAFFIC STOP S ANTHONY BLVD & E CREIGHTON AVE
19A018393 01:12:34 27 RECKLESS DRI CARROLL RD & SR 3
19A018394 01:39:08 11 PICK UP PRIS 7XX BROADWAY
19A018395 01:49:45 32A DEATH NOTIF 2XX W FERGUSON RD
19A018396 02:03:01 30 TRAFFIC STOP WINTER ST & ECKART ST
19A018397 02:10:42 120 GRABILL 135XX STATE ST
19A018398 02:29:22 30 TRAFFIC STOP OXFORD ST & PLAZA DR
19A018399 02:41:34 30 TRAFFIC STOP W COLISEUM BLVD & GOSHEN RD
19A018400 03:20:09 1 MEET 75XX WINCHESTER RD
19A018401 04:04:20 27 RECKLESS DRI UNION CHAPEL RD & OLD UNION CHAPEL
19A018402 05:41:10 30 TRAFFIC STOP ENGLE RD & MUSCODAY PASS
19A018403 06:11:15 EMS 181XX MONROEVILLE RD
19A018405 06:51:42 30 TRAFFIC STOP BASS RD & N WESTCOUNTY LINE RD
19A018406 06:52:20 108 FOLLOWUP XX E MAIN ST
19A018407 06:53:07 33 DISABLED VEH 26XX I 469 SB
19A018408 07:07:14 30 TRAFFIC STOP W US 30 & FELGER RD
19A018409 07:09:24 30 TRAFFIC STOP I 69 AND AIRPORT EXPRESSWAY
19A018410 07:16:26 16 PICK UP ITEM 1XX E SUPERIOR ST
19A018411 07:18:38 122 HUNTERTOWN 150XX LIMA RD
19A018412 07:19:10 129 SILVER SHADOW LN & DUESENBERG DR
19A018413 07:29:28 111D DOG 121XX SR 37
19A018414 07:42:38 33,34 N COLISEUM BLVD & LAKE AVE
19A018419 07:50:01 17 MOTOR CHECK 84XX MAYHEW RD
19A018415 07:50:07 14S SERVING WAR 34XX W LUDWIG RD
19A018416 07:50:45 27 RECKLESS DRI UNION CHAPEL RD & CORBIN RD
19A018417 07:54:18 129 TAYSIDE TRL & LOCH DHU LN
19A018418 07:55:15 30 TRAFFIC STOP 37XX CARROLL RD
19A018420 07:55:47 33 DISABLED VEH E FERGUSON RD & S ANTHONY BLVD
19A018421 07:57:16 46,96 110XX BASS RD
19A018429 08:04:14 17 MOTOR CHECK 58XX BASS RD
19A018422 08:12:13 30 TRAFFIC STOP SCHWARTZ RD & GRABILL RD
19A018423 08:13:40 11 PICK UP PRIS 27XX MAUMEE AVE
19A018424 08:17:13 30 TRAFFIC STOP SCHWARTZ RD & GRABILL RD
19A018425 08:29:00 66 MENTALLY ILL 23XX S WESTHAMILTON RD
19A018427 08:36:23 108 FOLLOWUP 4XX S SCOTT RD
19A018428 08:39:57 14S SERVING WAR 27XX W WASHINGTON CENTER RD
19A018431 08:50:51 25 PD ACCIDENT ST JOE RD & HALTER RD
19A018430 08:51:36 14S SERVING WAR 58XX ALTA VISTA CT
19A018432 09:00:36 22RC RECOVERY 136XX MONROEVILLE RD
19A018433 09:01:35 65T SUICIDE THR 136XX MONROEVILLE RD
19A018434 09:03:49 22I JUV INVEST 36XX BAIRD RD
19A018435 09:12:07 14S SERVING WAR 73XX BUTT RD
19A018436 09:17:50 80P Serving PO 26XX TRILLIUM CV
19A018437 09:18:07 37 PARKING VIOL 102XX OLD LEO RD
19A018438 09:21:44 123 LEO/CEDARVI 150XX SR 1
19A018439 09:24:21 80P Serving PO 61XX STELLHORN RD
19A018440 09:30:10 80P Serving PO 125XX US 33
19A018441 09:43:29 14S SERVING WAR 1XX E SUPERIOR ST
19A018442 09:44:59 33J LOCKED OUT 145XX SR 1
19A018443 09:48:29 14S SERVING WAR 63XX REED RD
19A018444 09:51:04 80P Serving PO 2XX E WOODLAND AVE
19A018445 09:53:58 80E EVICTION 53XX S HARRISON ST
19A018446 09:57:12 122 HUNTERTOWN 150XX LIMA RD
19A018447 10:02:25 911 HANG UP 75XX W JEFFERSON BLVD
19A018448 10:07:16 39U UNAUTHORIZE 94XX N CLINTON ST
19A018449 10:15:51 80P Serving PO 45XX AIRPORT EXPRESSWAY
19A018450 10:17:51 48,36 DUNKELBERG RD & HEMPFORD DR
19A018451 10:22:29 80P Serving PO 53XX GOSHEN RD
19A018452 10:29:34 22I JUV INVEST 37XX CARROLL RD
19A018453 10:32:18 108 FOLLOWUP 23XX WOODS RD
19A018454 10:36:05 14S SERVING WAR 7XX S CALHOUN ST
19A018455 10:37:15 108 FOLLOWUP 169XX ANTWERP RD
19A018456 10:40:03 80P Serving PO 2XX COUNTRY FOREST DR
19A018457 10:40:27 80P Serving PO 42XX ROBINWOOD DR
19A018459 10:49:54 EMS SMITH RD & ENGLE RD
19A018458 10:50:55 37 PARKING VIOL 43XX HOMESTEAD RD
19A018460 10:55:48 80P Serving PO 26XX BROADWAY
19A018461 11:06:03 22I JUV INVEST 47XX WEATHERSIDE RUN
19A018462 11:07:14 80E EVICTION 17XX OAKLAND ST
19A018463 11:16:55 80P Serving PO 30XX QUEEN ST
19A018465 11:35:32 911 HANG UP 129XX JADE CV
19A018464 11:36:01 30 TRAFFIC STOP WAYNE TRACE & E TILLMAN RD
19A018466 11:50:49 80P Serving PO 77XX GATHINGS DR
19A018467 11:53:48 51 THEFT 108XX TRADE WIND CT
19A018468 12:03:10 63 CONTACT 8XX MANCK DR
19A018469 12:10:14 80P Serving PO 63XX ST JOE CENTER RD
19A018470 12:10:18 35 PARKED VEHIC 41XX PARK PLACE DR
19A018471 12:17:31 33 DISABLED VEH LOWER HUNTINGTON RD & I 69 299 SB
19A018472 12:18:52 80P Serving PO 7XX ROMY AVE
19A018473 12:23:06 30 TRAFFIC STOP LOWER HUNTINGTON RD & I 69 299 NB
19A018474 12:24:36 108 FOLLOWUP 42XX OAKLEAF DR
19A018475 12:27:28 33 DISABLED VEH I 469 AND MINNICH RD
19A018476 12:35:22 63Z ZACH CHECK 41XX S LAFAYETTE ST
19A018477 12:44:51 80P Serving PO 1XX N RUFUS ST
19A018478 12:50:49 14S SERVING WAR 50XX STARWOOD DR
19A018479 12:54:13 25 PD ACCIDENT SR 37 & THIMLAR RD
19A018480 12:54:24 47 REMOVE ITEMS 102XX MOON VALLEY DR
19A018481 12:58:14 80P Serving PO 31XX MCDONALD ST
19A018485 13:02:32 51,ATTEMPTED 107XX S US 27
19A018482 13:03:12 80P Serving PO 16XX BIRCHWOOD AVE
19A018483 13:09:03 46 DOMESTIC 88XX W JEFFERSON BLVD
19A018484 13:18:54 80P Serving PO 77XX GATHINGS DR
19A018489 13:22:34 25 PD ACCIDENT 77XX ILLINOIS RD
19A018486 13:23:43 14S SERVING WAR 169XX ANTWERP RD
19A018487 13:25:27 63Z ZACH CHECK 51XX OLD MAYSVILLE RD
19A018488 13:34:29 80P Serving PO 5XX ROSE AVE
19A018490 13:47:01 63Z ZACH CHECK 3XX REXFORD DR
19A018491 13:55:21 30 TRAFFIC STOP S SR 101 & RORICK RD
19A018492 13:57:14 22I JUV INVEST 43XX HOMESTEAD RD
19A018493 13:59:28 33,34 W JEFFERSON BLVD & ARDMORE AVE
19A018494 13:59:48 80E EVICTION 47XX JASON DR
19A018495 14:07:50 911 HANG UP 111XX PARKVIEW PLAZA DR
19A018496 14:11:49 80P Serving PO 43XX WARSAW ST
19A018497 14:22:37 26 PI ACCIDENT ABOITE RD & WHITE LOON PASS
19A018498 14:23:58 63 CONTACT 49XX STARBOARD DR
19A018499 14:27:28 14S SERVING WAR 25XX CASTLE DR
19A018500 14:31:48 99 NARCOTICS 172XX WOODBURN RD
19A018501 14:37:07 122 HUNTERTOWN 150XX LIMA RD
19A018502 14:42:32 14S SERVING WAR 37XX E WASHINGTON BLVD
19A018503 14:44:06 129 THUNDERBIRD RD & SILVER SHADOW LN
19A018504 14:47:58 33 DISABLED VEH FLUTTER RD & SCHWARTZ RD
19A018505 14:54:53 122 HUNTERTOWN 150XX LIMA RD
19A018506 15:00:23 1 MEET 47XX WEATHERSIDE RUN
19A018507 15:04:36 14S SERVING WAR 4XX W LINCOLN HWY
19A018508 15:05:44 14S SERVING WAR 70XX E SR 930
19A018509 15:13:19 17 MOTOR CHECK 57XX E PAULDING RD
19A018511 15:14:57 25 PD ACCIDENT 102XX CHESTNUT PLAZA DR
19A018510 15:19:22 30 TRAFFIC STOP CARROLL RD & LEATHERWOOD RUN
19A018512 15:19:34 15 ASSIST XX SPRUCE KNOLL DR
19A018513 15:24:04 14S SERVING WAR 54XX OLD MAUMEE RD
19A018515 15:26:17 911 HANG UP 103XX ABOITE CENTER RD
19A018514 15:27:06 14S SERVING WAR 30XX ALEXANDER ST
19A018516 15:34:58 14S SERVING WAR XX E MAIN ST
19A018517 15:35:02 46 DOMESTIC 93XX MORNING LIGHT TRL
19A018518 15:36:47 14S SERVING WAR 44XX GAYWOOD DR
19A018521 15:42:10 66 72 HOUR 79XX W JEFFERSON BLVD
19A018519 15:45:26 25 PD ACCIDENT 37XX CARROLL RD
19A018520 15:49:22 14S SERVING WAR 18XX ALLIGER ST
19A018523 16:32:43 30 TRAFFIC STOP I 69 AND JEFFERSON BLVD
19A018524 16:52:52 111C CAT 17XX SHAKESPEARE BLVD
19A018525 17:09:24 911 HANG UP 46XX GREEN MEADOWS DR
19A018527 17:11:58 14 WARRANT 37XX MARIGOLD DR
19A018526 17:13:55 14S SERVING WAR 14XX W FOURTH ST
19A018528 17:29:34 34 TRAFF HAZARD 22XX I 469 SB
19A018529 17:40:41 65T SUICIDE THR 9XX WAVERLY DR
19A018530 17:40:47 25 PD ACCIDENT BASS RD & EME RD
19A018531 17:49:24 911 HANG UP 75XX WINCHESTER RD
19A018532 17:54:44 123 LEO/CEDARVI 150XX SR 1
19A018535 18:14:12 34 TRAFF HAZARD AIRPORT EXPRESSWAY & BLUFFTON RD
19A018533 18:18:47 25 PD ACCIDENT I 69 AND DUPONT RD
19A018534 18:24:08 63Z ZACH CHECK 32XX RAYMOND AVE
19A018536 18:42:28 23 VANDALISM 3XX MULBERRY ST
19A018537 18:42:54 108 FOLLOWUP 152XX HARRISON LAKE CV
19A018539 19:11:38 15,84 ASS URGEN 71XX DELLMERE DR
19A018538 19:22:43 30 TRAFFIC STOP 296XX I 69 SB
19A018540 19:58:33 111D DOG 116XX ANTWERP RD
19A018541 21:12:10 1 MEET 146XX LAKE CENTER RD
19A018542 22:44:26 30 TRAFFIC STOP E WAYNE ST & S LAFAYETTE ST
19A018543 22:47:38 53 ARMED ROB 36XX E STATE BLVD
19A018544 23:02:42 33J LOCKED OUT 33XX W COLISEUM BLVD
19A018545 23:08:21 30 TRAFFIC STOP W RUDISILL BLVD & HOAGLAND AVE
19A018546 23:28:42 30 TRAFFIC STOP W COLISEUM BLVD & EXECUTIVE BLVD
19A018547 23:35:32 30 TRAFFIC STOP CAROLINE ST & E PONTIAC ST
19A018548 23:47:09 30 TRAFFIC STOP S HANNA ST & HAMILTON AVE